SCP
0 0 0 0 0 0 0 0 0 0 0 0 0 0 0 -0 0 -0 -0 -0 0 -0 -0 0 0 -0 0 0 0 0 0 0 0 0 0 0 0 0 0 0 0 0 0 0
0 0 0 0 0 0 0 0 0 0 0 0 0 0 0 0 -0 -0 -0 -0 -0 -0 -0 -0 -0 0 -0 0 -0 -0 -0 0 0 0 0 0 0 0 0 0 0 0 0 0
0 0 0 0 0 0 0 0 0 0 0 0 0 0 0 -0 -0 0 0 0 0 -0 -0 -0 -0 0 -0 -0 0 -0 -0 0 0 0 0 0 0 0 0 0 0 0 0 0
0 0 0 0 0 0 0 0 0 0 0 0 0 0 0 0 -0 -0 0 0 0 0 -0 -0 -0 -0 -0 -0 -0 -0 0 0 0 0 0 0 0 0 0 0 0 0 0 0
0 0 0 0 0 0 0 0 0 0 0 0 0 0 0 0 0 -0 -0 0 0 0 0 0 -0 0 0 0 0 0 0 0 0 0 0 0 0 0 0 0 0 0 0 0
0 0 0 0 0 0 0 0 0 0 0 0 0 0 0 0 0 0 0 0 0 0 0 0 0 0 0 0 0 0 0 0 0 0 0 0 0 0 0 0 0 0 0 0
0 0 0 0 0 0 0 0 0 0 0 0 0 0 0 0 0 0 0 0 0 0 0 0 0 0 0 0 0 0 0 0 0 0 0 0 0 0 0 0 0 0 0 0
0 0 0 0 0 0 0 0 0 0 0 -0 -0 -0 -0 0 0 0 0 0 0 0 0 0 -0 0 0 0 0 0 0 0 0 0 0 0 0 0 0 0 0 0 0 0
0 0 0 0 0 0 0 0 0 0 0 -0 -0 -0 -0 0 -0 -0 -0 0 0 0 0 0 0 0 0 0 0 0 0 0 0 0 0 0 0 0 0 -0 0 0 0 0
0 0 0 0 0 0 0 0 0 0 0 -0 -0 -0 -0 -0 -0 0 0 0 0 0 0 0 0 0 0 0 0 0 0 0 0 0 0 0 0 0 0 0 0 0 0 0
0 0 0 0 0 0 0 0 0 0 0 -0 -0 -0 -0 -0 -0 0 0 0 0 0 0 0 0 0 0 0 0 0 0 0 0 0 0 0 0 0 0 0 0 0 0 0
0 0 0 0 0 0 0 0 0 0 0 0 0 -0 -0 -0 0 0 0 0 0 0 0 0 0 0 0 0 0 0 0 0 0 0 0 0 0 0 0 0 0 0 0 0
0 0 0 0 0 0 0 0 0 0 0 0 0 0 0 -0 0 0 0 0 0 0 0 0 0 0 0 0 0 0 0 0 0 0 0 0 0 0 -0 0 -0 0 0 0
0 0 0 0 0 0 0 0 0 0 0 0 0 0 0 0 0 0 0 0 0 0 0 0 0 0 0 0 0 0 0 0 0 0 0 0 0 0 0 0 0 0 0 0
0 0 0 0 0 0 0 0 0 0 0 0 0 0 0 0 0 0 0 0 0 0 0 0 0 0 0 0 0 0 0 0 0 0 0 0 0 0 0 0 0 0 0 0
0 0 0 0 0 0 0 0 0 0 0 0 0 0 0 0 0 0 0 0 0 0 0 0 0 0 0 0 0 0 0 0 0 0 0 0 0 0 0 0 0 0 0 0
0 0 0 0 0 0 0 0 0 0 0 0 0 0 0 0 0 0 0 0 0 0 0 0 0 0 0 0 0 0 0 0 0 0 0 0 0 0 0 0 0 0 0 -0
0 0 0 0 0 0 0 0 0 0 0 0 0 0 0 0 0 0 0 0 0 0 0 0 0 0 0 0 0 0 0 0 0 0 0 0 0 0 0 0 0 0 0 0
0 0 0 0 0 0 0 0 0 0 0 0 0 0 0 0 0 0 0 0 0 0 0 0 0 0 0 0 0 0 0 0 0 0 0 0 0 0 0 0 0 0 0 0
0 0 0 0 0 0 0 0 0 0 0 0 0 0 0 0 0 0 0 0 0 0 0 0 0 0 0 0 0 0 0 0 0 0 0 0 0 0 0 0 0 0 0 0
0 0 0 0 0 0 0 0 0 0 0 0 0 0 0 0 0 0 0 0 0 0 0 0 0 0 0 0 0 0 0 0 0 0 0 0 0 0 0 0 0 0 0 0
0 -0 -0 -0 0 0 0 0 0 0 0 0 0 0 0 0 0 0 0 0 0 0 0 0 0 0 0 0 0 0 0 0 0 0 0 0 0 0 0 0 0 0 0 0
-0 -0 -0 -0 -0 0 0 0 0 0 0 0 0 0 0 0 0 0 0 0 0 0 0 0 0 0 0 0 0 0 0 0 0 0 0 0 0 0 0 0 0 0 0 0
-0 -0 -0 0 0 0 0 0 0 0 0 0 0 0 0 0 0 0 0 0 0 0 0 0 0 0 0 0 0 0 0 0 0 0 0 0 0 0 0 0 0 0 0 0
0 -0 -0 -0 0 0 0 0 0 0 0 0 0 0 0 0 0 0 0 0 0 0 0 0 0 0 0 0 0 0 0 0 0 0 0 0 0 0 0 0 0 0 0 0
-0 -0 -0 -0 -0 0 0 0 0 0 0 0 0 0 0 0 0 0 0 0 0 0 0 0 0 0 0 0 0 0 0 0 0 0 0 0 0 0 0 0 0 0 0 0
-0 -0 -0 -0 -0 -0 0 0 0 0 0 0 0 0 0 0 0 0 0 0 0 0 0 0 0 0 0 0 0 0 0 0 0 0 0 0 0 0 0 0 0 0 0 0
Wind_Speed_500mb
14 50 49 44 46 44 26 17 28 30 32 26 26 29 43 50 46 56 60 60 58 52 51 47 45 44 35 34 32 22 18 19 23 25 32 34 35 37 40 41 40 37 34 32
34 41 43 40 37 46 29 19 3 23 30 24 37 42 48 46 52 54 55 54 52 53 50 45 43 34 31 22 21 16 16 20 26 32 33 36 37 33 26 25 29 29 27 26
29 39 42 36 42 47 38 24 18 22 27 27 34 35 48 52 51 54 52 52 48 52 45 42 33 30 25 17 15 16 22 29 35 34 31 25 19 20 25 29 32 28 25 25
31 37 29 20 8 29 35 28 16 17 33 32 39 44 44 45 56 58 53 50 43 46 42 35 29 22 14 11 14 21 26 26 23 22 18 18 21 25 29 30 28 27 27 26
25 24 27 23 17 18 28 22 18 22 32 47 54 50 24 34 53 52 49 51 53 44 37 29 20 11 10 14 22 23 23 18 18 16 16 19 22 24 25 24 26 26 23 22
26 23 22 24 16 4 7 20 23 33 35 44 53 20 5 40 56 51 59 54 49 39 29 18 11 7 9 15 14 13 13 15 15 17 18 19 21 22 20 21 22 21 22 23
17 9 14 15 7 4 19 11 35 45 51 50 24 31 50 54 50 50 51 55 43 29 21 14 4 7 12 12 11 14 13 13 15 16 17 20 20 17 19 20 22 24 25 25
7 13 13 22 4 7 8 25 43 48 47 49 67 73 63 48 50 58 55 40 27 20 14 6 4 11 10 12 14 10 9 12 15 18 16 17 17 21 17 19 22 24 28 27
14 8 4 12 8 4 6 33 41 50 47 70 76 64 63 68 44 44 42 32 23 15 8 6 10 10 7 12 10 9 11 11 14 17 18 14 14 12 11 16 22 26 30 31
9 19 21 23 17 18 28 38 42 45 60 75 70 60 53 48 43 38 33 24 19 13 9 7 8 12 13 12 7 8 7 10 11 12 16 9 9 5 14 20 28 25 29 40
21 21 34 33 29 29 37 44 47 52 61 63 64 58 51 45 39 33 26 19 15 10 5 6 13 16 14 8 5 8 8 8 11 12 14 5 6 6 10 20 29 28 35 40
7 23 34 27 32 35 48 49 51 59 60 55 55 54 48 41 32 26 19 13 10 8 8 12 13 13 12 5 4 5 5 6 12 13 11 7 7 11 20 18 21 24 29 34
31 40 47 44 42 42 55 56 59 62 58 59 51 44 39 35 27 23 15 10 6 7 12 14 14 10 8 3 1 3 3 7 10 12 10 9 10 8 6 14 18 23 24 24
45 47 51 38 37 49 56 58 58 53 45 42 36 31 27 23 19 14 8 6 10 12 13 15 10 8 7 3 4 2 4 5 9 11 14 7 4 7 11 13 14 10 16 17
61 52 55 51 51 50 47 44 45 42 35 31 25 24 20 17 13 5 5 10 16 19 15 13 11 11 8 7 6 6 3 5 7 8 11 9 9 9 10 14 17 18 18 19
42 39 39 43 40 35 34 30 29 25 22 18 15 14 9 6 3 5 11 21 21 20 15 12 11 10 10 11 10 7 4 5 3 4 8 8 8 9 11 16 21 24 27 27
34 30 26 28 27 26 24 21 17 13 12 9 6 3 5 8 9 12 21 22 19 15 11 10 9 10 12 13 11 8 5 2 3 6 6 6 10 11 12 19 24 27 30 29
29 27 23 20 18 15 13 12 9 6 3 3 8 10 12 14 18 23 19 14 10 7 8 8 9 12 13 13 10 9 7 5 8 9 10 10 11 12 15 18 21 25 27 26
25 24 21 19 14 11 8 5 4 4 8 11 12 19 21 21 19 14 9 7 5 6 11 8 11 15 15 15 13 10 9 10 12 12 13 13 13 14 16 16 19 21 23 26
22 18 16 14 12 9 5 3 3 3 5 7 8 15 15 11 8 6 5 5 9 13 11 11 13 16 16 15 15 14 14 15 14 15 16 17 19 20 22 22 22 23 24 28
18 14 13 11 10 9 8 6 5 5 6 4 7 4 3 4 6 7 8 6 7 7 11 12 14 15 17 18 18 19 20 21 18 18 22 21 22 23 25 27 29 32 32 34
12 11 10 10 8 8 8 7 5 4 2 3 3 8 9 7 7 10 9 8 9 10 11 13 15 16 20 22 25 25 25 26 25 21 23 24 24 19 20 21 24 27 26 28
14 12 10 9 7 6 7 7 8 8 7 8 9 10 11 10 11 8 8 11 12 13 15 18 19 21 25 27 29 30 30 28 25 26 29 31 32 29 25 24 24 26 27 28
15 12 12 11 8 5 7 11 12 11 11 11 12 12 10 9 10 11 11 14 16 18 23 25 25 27 30 31 31 30 28 27 26 24 26 27 24 22 21 22 24 26 27 30
13 11 7 6 7 9 13 16 14 13 14 13 13 10 6 7 9 11 13 19 23 27 31 31 34 38 29 30 29 29 30 31 30 24 25 24 25 23 22 25 29 28 27 27
10 12 12 10 8 10 12 12 11 12 11 12 11 10 9 12 15 19 24 29 33 36 36 34 33 33 35 35 34 34 34 33 31 31 32 30 29 27 25 24 24 25 27 27
11 14 15 13 10 11 12 13 11 12 15 12 15 12 15 23 31 27 28 29 32 35 36 37 35 36 37 37 37 36 35 32 30 29 28 27 26 27 26 27 26 25 24 27
Wind_Direction_500mb
175 158 173 174 183 185 193 131 128 137 135 137 126 140 134 139 135 132 129 125 121 119 116 112 111 110 102 99 89 82 54 23 5 349 344 336 328 327 323 321 321 324 325 326
127 147 163 177 179 196 211 206 151 140 108 124 118 136 141 146 147 138 135 129 125 124 118 115 111 109 112 96 79 57 16 351 338 336 335 332 331 332 331 336 339 342 338 339
141 151 151 168 178 181 190 190 176 175 138 147 138 150 155 157 148 137 134 132 130 118 115 117 119 125 114 85 50 4 344 338 336 336 334 331 340 351 352 349 347 351 348 349
150 161 158 92 119 189 188 192 193 85 138 148 142 145 149 157 147 138 135 132 125 117 116 117 115 104 94 51 354 333 330 333 333 338 345 356 2 356 350 352 357 355 352 353
150 157 112 124 145 176 166 180 197 149 133 115 117 105 79 160 143 141 136 134 129 125 122 122 121 104 44 347 327 336 344 340 344 355 8 10 4 0 0 1 358 356 349 347
157 153 154 116 126 118 211 184 191 146 138 142 150 144 125 120 145 135 134 132 135 135 127 129 114 56 320 318 345 349 341 351 5 11 13 6 4 4 2 4 360 357 348 338
155 132 92 72 11 179 201 102 153 145 153 157 171 149 145 138 137 134 136 139 137 130 121 123 104 315 341 353 344 345 355 9 9 9 10 2 9 14 10 8 3 357 348 343
158 136 116 357 196 292 16 155 142 146 148 117 120 130 137 143 136 138 135 135 128 117 119 110 347 352 357 343 342 355 10 13 9 9 10 8 27 25 13 5 358 351 350 351
14 74 37 22 16 11 155 141 145 136 136 136 132 133 146 146 145 132 129 128 128 128 112 41 12 12 7 347 2 24 24 18 6 15 8 17 15 0 3 353 352 355 349 349
169 56 57 50 63 114 127 128 130 140 141 141 131 136 138 141 134 128 126 131 124 106 88 47 9 11 5 357 16 30 22 14 11 11 10 19 7 360 13 356 355 352 354 360
104 115 90 60 73 93 113 122 125 129 133 136 136 138 140 136 135 131 128 125 114 109 83 18 5 357 351 352 15 31 23 8 9 12 3 17 11 349 354 337 343 356 4 4
55 75 94 89 91 107 112 116 120 124 118 123 131 134 138 132 128 125 123 114 98 59 27 355 349 333 333 345 26 32 19 354 3 3 0 24 24 18 331 338 348 355 15 5
99 100 100 95 93 96 102 104 109 113 118 128 128 127 128 130 133 128 113 94 54 5 342 322 315 323 326 304 20 348 41 26 15 7 3 34 14 355 336 340 353 5 14 7
103 106 94 89 94 98 101 105 108 111 112 113 114 117 115 117 115 103 79 1 329 320 302 306 307 297 284 224 228 194 83 49 31 17 14 10 345 19 12 7 21 18 18 21
90 94 95 99 98 95 97 103 103 103 105 108 116 121 121 122 106 91 324 314 308 308 307 293 279 268 238 204 216 186 125 28 11 16 0 51 52 38 26 47 54 57 56 57
87 81 86 82 88 90 95 93 96 103 108 115 121 110 102 84 45 333 318 311 310 307 299 284 264 244 212 195 207 188 185 31 23 43 19 40 55 60 66 64 65 55 52 52
100 92 91 91 90 88 87 93 98 103 107 108 88 33 325 322 330 303 307 302 298 293 284 263 240 211 196 193 204 191 210 354 97 80 63 82 98 90 87 76 72 66 62 55
98 98 97 93 90 88 84 83 83 75 69 286 297 297 296 296 295 299 296 288 278 275 265 241 220 195 188 193 191 188 165 165 137 114 90 103 109 105 99 87 82 77 73 67
86 85 83 84 86 92 85 67 37 349 318 312 303 288 292 294 290 278 260 245 241 241 259 224 202 183 192 188 166 171 170 159 141 130 114 117 116 113 105 96 84 76 68 60
86 81 81 77 70 68 50 45 23 350 322 309 288 291 287 271 236 212 189 225 224 223 216 208 186 184 179 170 163 156 154 140 132 126 118 114 109 102 99 92 84 78 74 66
89 85 79 73 65 58 49 31 9 338 333 331 289 269 210 176 154 163 162 209 196 171 182 178 175 170 163 153 149 145 143 130 125 124 117 112 103 94 82 81 80 72 64 57
89 75 68 65 61 48 52 54 47 64 66 80 120 125 123 135 166 180 182 186 160 161 170 164 157 153 147 146 139 138 136 130 123 120 117 113 106 88 77 71 64 61 53 49
87 81 78 77 82 91 88 81 92 107 89 100 116 135 150 138 135 140 161 157 151 152 154 141 132 131 133 132 131 131 127 117 114 110 106 100 94 75 72 70 64 58 58 49
75 69 70 67 76 107 102 101 107 99 99 107 119 135 149 171 172 177 166 155 153 149 138 127 124 126 125 123 119 115 112 109 102 95 93 91 85 77 72 70 65 61 56 51
81 67 70 81 92 122 116 112 101 91 106 108 119 130 144 177 174 143 143 141 139 134 124 121 122 113 108 114 115 119 122 119 112 105 101 91 88 82 73 68 71 68 58 52
88 75 66 83 116 124 117 117 108 98 106 112 118 116 107 125 124 126 130 129 128 127 126 129 129 121 121 118 116 116 114 112 112 113 108 103 102 96 89 79 70 62 60 54
106 77 75 74 101 127 131 129 114 112 121 129 120 106 115 124 122 120 124 127 129 130 130 126 125 123 124 122 118 114 109 106 106 105 102 98 95 90 84 78 72 68 59 51
Wind_Speed_850mb
14 50 49 44 46 44 26 17 28 30 32 26 26 29 43 50 46 56 60 60 58 52 51 47 45 44 35 34 32 22 18 19 23 25 32 34 35 37 40 41 40 37 34 32
34 41 43 40 37 46 29 19 3 23 30 24 37 42 48 46 52 54 55 54 52 53 50 45 43 34 31 22 21 16 16 20 26 32 33 36 37 33 26 25 29 29 27 26
29 39 42 36 42 47 38 24 18 22 27 27 34 35 48 52 51 54 52 52 48 52 45 42 33 30 25 17 15 16 22 29 35 34 31 25 19 20 25 29 32 28 25 25
31 37 29 20 8 29 35 28 16 17 33 32 39 44 44 45 56 58 53 50 43 46 42 35 29 22 14 11 14 21 26 26 23 22 18 18 21 25 29 30 28 27 27 26
25 24 27 23 17 18 28 22 18 22 32 47 54 50 24 34 53 52 49 51 53 44 37 29 20 11 10 14 22 23 23 18 18 16 16 19 22 24 25 24 26 26 23 22
26 23 22 24 16 4 7 20 23 33 35 44 53 20 5 40 56 51 59 54 49 39 29 18 11 7 9 15 14 13 13 15 15 17 18 19 21 22 20 21 22 21 22 23
17 9 14 15 7 4 19 11 35 45 51 50 24 31 50 54 50 50 51 55 43 29 21 14 4 7 12 12 11 14 13 13 15 16 17 20 20 17 19 20 22 24 25 25
7 13 13 22 4 7 8 25 43 48 47 49 67 73 63 48 50 58 55 40 27 20 14 6 4 11 10 12 14 10 9 12 15 18 16 17 17 21 17 19 22 24 28 27
14 8 4 12 8 4 6 33 41 50 47 70 76 64 63 68 44 44 42 32 23 15 8 6 10 10 7 12 10 9 11 11 14 17 18 14 14 12 11 16 22 26 30 31
9 19 21 23 17 18 28 38 42 45 60 75 70 60 53 48 43 38 33 24 19 13 9 7 8 12 13 12 7 8 7 10 11 12 16 9 9 5 14 20 28 25 29 40
21 21 34 33 29 29 37 44 47 52 61 63 64 58 51 45 39 33 26 19 15 10 5 6 13 16 14 8 5 8 8 8 11 12 14 5 6 6 10 20 29 28 35 40
7 23 34 27 32 35 48 49 51 59 60 55 55 54 48 41 32 26 19 13 10 8 8 12 13 13 12 5 4 5 5 6 12 13 11 7 7 11 20 18 21 24 29 34
31 40 47 44 42 42 55 56 59 62 58 59 51 44 39 35 27 23 15 10 6 7 12 14 14 10 8 3 1 3 3 7 10 12 10 9 10 8 6 14 18 23 24 24
45 47 51 38 37 49 56 58 58 53 45 42 36 31 27 23 19 14 8 6 10 12 13 15 10 8 7 3 4 2 4 5 9 11 14 7 4 7 11 13 14 10 16 17
61 52 55 51 51 50 47 44 45 42 35 31 25 24 20 17 13 5 5 10 16 19 15 13 11 11 8 7 6 6 3 5 7 8 11 9 9 9 10 14 17 18 18 19
42 39 39 43 40 35 34 30 29 25 22 18 15 14 9 6 3 5 11 21 21 20 15 12 11 10 10 11 10 7 4 5 3 4 8 8 8 9 11 16 21 24 27 27
34 30 26 28 27 26 24 21 17 13 12 9 6 3 5 8 9 12 21 22 19 15 11 10 9 10 12 13 11 8 5 2 3 6 6 6 10 11 12 19 24 27 30 29
29 27 23 20 18 15 13 12 9 6 3 3 8 10 12 14 18 23 19 14 10 7 8 8 9 12 13 13 10 9 7 5 8 9 10 10 11 12 15 18 21 25 27 26
25 24 21 19 14 11 8 5 4 4 8 11 12 19 21 21 19 14 9 7 5 6 11 8 11 15 15 15 13 10 9 10 12 12 13 13 13 14 16 16 19 21 23 26
22 18 16 14 12 9 5 3 3 3 5 7 8 15 15 11 8 6 5 5 9 13 11 11 13 16 16 15 15 14 14 15 14 15 16 17 19 20 22 22 22 23 24 28
18 14 13 11 10 9 8 6 5 5 6 4 7 4 3 4 6 7 8 6 7 7 11 12 14 15 17 18 18 19 20 21 18 18 22 21 22 23 25 27 29 32 32 34
12 11 10 10 8 8 8 7 5 4 2 3 3 8 9 7 7 10 9 8 9 10 11 13 15 16 20 22 25 25 25 26 25 21 23 24 24 19 20 21 24 27 26 28
14 12 10 9 7 6 7 7 8 8 7 8 9 10 11 10 11 8 8 11 12 13 15 18 19 21 25 27 29 30 30 28 25 26 29 31 32 29 25 24 24 26 27 28
15 12 12 11 8 5 7 11 12 11 11 11 12 12 10 9 10 11 11 14 16 18 23 25 25 27 30 31 31 30 28 27 26 24 26 27 24 22 21 22 24 26 27 30
13 11 7 6 7 9 13 16 14 13 14 13 13 10 6 7 9 11 13 19 23 27 31 31 34 38 29 30 29 29 30 31 30 24 25 24 25 23 22 25 29 28 27 27
10 12 12 10 8 10 12 12 11 12 11 12 11 10 9 12 15 19 24 29 33 36 36 34 33 33 35 35 34 34 34 33 31 31 32 30 29 27 25 24 24 25 27 27
11 14 15 13 10 11 12 13 11 12 15 12 15 12 15 23 31 27 28 29 32 35 36 37 35 36 37 37 37 36 35 32 30 29 28 27 26 27 26 27 26 25 24 27
Wind_Direction_850mb
175 158 173 174 183 185 193 131 128 137 135 137 126 140 134 139 135 132 129 125 121 119 116 112 111 110 102 99 89 82 54 23 5 349 344 336 328 327 323 321 321 324 325 326
127 147 163 177 179 196 211 206 151 140 108 124 118 136 141 146 147 138 135 129 125 124 118 115 111 109 112 96 79 57 16 351 338 336 335 332 331 332 331 336 339 342 338 339
141 151 151 168 178 181 190 190 176 175 138 147 138 150 155 157 148 137 134 132 130 118 115 117 119 125 114 85 50 4 344 338 336 336 334 331 340 351 352 349 347 351 348 349
150 161 158 92 119 189 188 192 193 85 138 148 142 145 149 157 147 138 135 132 125 117 116 117 115 104 94 51 354 333 330 333 333 338 345 356 2 356 350 352 357 355 352 353
150 157 112 124 145 176 166 180 197 149 133 115 117 105 79 160 143 141 136 134 129 125 122 122 121 104 44 347 327 336 344 340 344 355 8 10 4 0 0 1 358 356 349 347
157 153 154 116 126 118 211 184 191 146 138 142 150 144 125 120 145 135 134 132 135 135 127 129 114 56 320 318 345 349 341 351 5 11 13 6 4 4 2 4 360 357 348 338
155 132 92 72 11 179 201 102 153 145 153 157 171 149 145 138 137 134 136 139 137 130 121 123 104 315 341 353 344 345 355 9 9 9 10 2 9 14 10 8 3 357 348 343
158 136 116 357 196 292 16 155 142 146 148 117 120 130 137 143 136 138 135 135 128 117 119 110 347 352 357 343 342 355 10 13 9 9 10 8 27 25 13 5 358 351 350 351
14 74 37 22 16 11 155 141 145 136 136 136 132 133 146 146 145 132 129 128 128 128 112 41 12 12 7 347 2 24 24 18 6 15 8 17 15 0 3 353 352 355 349 349
169 56 57 50 63 114 127 128 130 140 141 141 131 136 138 141 134 128 126 131 124 106 88 47 9 11 5 357 16 30 22 14 11 11 10 19 7 360 13 356 355 352 354 360
104 115 90 60 73 93 113 122 125 129 133 136 136 138 140 136 135 131 128 125 114 109 83 18 5 357 351 352 15 31 23 8 9 12 3 17 11 349 354 337 343 356 4 4
55 75 94 89 91 107 112 116 120 124 118 123 131 134 138 132 128 125 123 114 98 59 27 355 349 333 333 345 26 32 19 354 3 3 0 24 24 18 331 338 348 355 15 5
99 100 100 95 93 96 102 104 109 113 118 128 128 127 128 130 133 128 113 94 54 5 342 322 315 323 326 304 20 348 41 26 15 7 3 34 14 355 336 340 353 5 14 7
103 106 94 89 94 98 101 105 108 111 112 113 114 117 115 117 115 103 79 1 329 320 302 306 307 297 284 224 228 194 83 49 31 17 14 10 345 19 12 7 21 18 18 21
90 94 95 99 98 95 97 103 103 103 105 108 116 121 121 122 106 91 324 314 308 308 307 293 279 268 238 204 216 186 125 28 11 16 0 51 52 38 26 47 54 57 56 57
87 81 86 82 88 90 95 93 96 103 108 115 121 110 102 84 45 333 318 311 310 307 299 284 264 244 212 195 207 188 185 31 23 43 19 40 55 60 66 64 65 55 52 52
100 92 91 91 90 88 87 93 98 103 107 108 88 33 325 322 330 303 307 302 298 293 284 263 240 211 196 193 204 191 210 354 97 80 63 82 98 90 87 76 72 66 62 55
98 98 97 93 90 88 84 83 83 75 69 286 297 297 296 296 295 299 296 288 278 275 265 241 220 195 188 193 191 188 165 165 137 114 90 103 109 105 99 87 82 77 73 67
86 85 83 84 86 92 85 67 37 349 318 312 303 288 292 294 290 278 260 245 241 241 259 224 202 183 192 188 166 171 170 159 141 130 114 117 116 113 105 96 84 76 68 60
86 81 81 77 70 68 50 45 23 350 322 309 288 291 287 271 236 212 189 225 224 223 216 208 186 184 179 170 163 156 154 140 132 126 118 114 109 102 99 92 84 78 74 66
89 85 79 73 65 58 49 31 9 338 333 331 289 269 210 176 154 163 162 209 196 171 182 178 175 170 163 153 149 145 143 130 125 124 117 112 103 94 82 81 80 72 64 57
89 75 68 65 61 48 52 54 47 64 66 80 120 125 123 135 166 180 182 186 160 161 170 164 157 153 147 146 139 138 136 130 123 120 117 113 106 88 77 71 64 61 53 49
87 81 78 77 82 91 88 81 92 107 89 100 116 135 150 138 135 140 161 157 151 152 154 141 132 131 133 132 131 131 127 117 114 110 106 100 94 75 72 70 64 58 58 49
75 69 70 67 76 107 102 101 107 99 99 107 119 135 149 171 172 177 166 155 153 149 138 127 124 126 125 123 119 115 112 109 102 95 93 91 85 77 72 70 65 61 56 51
81 67 70 81 92 122 116 112 101 91 106 108 119 130 144 177 174 143 143 141 139 134 124 121 122 113 108 114 115 119 122 119 112 105 101 91 88 82 73 68 71 68 58 52
88 75 66 83 116 124 117 117 108 98 106 112 118 116 107 125 124 126 130 129 128 127 126 129 129 121 121 118 116 116 114 112 112 113 108 103 102 96 89 79 70 62 60 54
106 77 75 74 101 127 131 129 114 112 121 129 120 106 115 124 122 120 124 127 129 130 130 126 125 123 124 122 118 114 109 106 106 105 102 98 95 90 84 78 72 68 59 51